Regional Weather Roundup
Issued by NWS

Home | Current Version | Previous Version | Graphics & Text | Print | Product List | Glossary On
Versions: 1 2 3 4 5 6 7 8 9 10 11 12 13 14 15 16 17 18 19 20 21 22 23 24 25 26 27 28 29 30 31 32 33 34 35 36 37 38 39 40 41 42 43 44 45 46 47 48 49 50
000
ASUS43 KFSD 271302
RWRSD

WEATHER ROUNDUP FOR SOUTH DAKOTA
NATIONAL WEATHER SERVICE SIOUX FALLS SD
800 AM CDT WED MAY 27 2015

NOTE: "FAIR" INDICATES FEW OR NO CLOUDS BELOW 12,000 FEET WITH NO
SIGNIFICANT WEATHER AND/OR OBSTRUCTIONS TO VISIBILITY.


SDZ001>005-009-010-012>017-271400-
NORTHWEST AND NORTH CENTRAL SOUTH DAKOTA

CITY           SKY/WX    TMP DP  RH WIND       PRES   REMARKS
FAITH            N/A     58  48  69 S10       29.97S
MOBRIDGE       SUNNY     59  55  87 SE5       29.95S
$$

SDZ012>016-024>037-041>051-057-063-072>074-271400-
SOUTHWEST AND SOUTH CENTRAL SOUTH DAKOTA

CITY           SKY/WX    TMP DP  RH WIND       PRES   REMARKS
RAPID CTY ARPT CLOUDY    55  52  89 SE5       29.99S
PIERRE         PTSUNNY   57  50  77 SW6       29.99R
CUSTER         CLOUDY    47  44  90 W3        30.06S
ELLSWORTH AFB  CLOUDY    54  52  92 S7        29.98F
PHILIP         MOSUNNY   58  52  80 SE3       29.99S
PINE RIDGE     LGT RAIN  57  51  80 S3        30.03S
WINNER         FAIR      63  47  55 SW9       30.02R
$$

SDZ004>011-016>023-039-040-271400-
NORTHEAST SOUTH DAKOTA

CITY           SKY/WX    TMP DP  RH WIND       PRES   REMARKS
ABERDEEN       SUNNY     62  53  72 W5        29.96R
WATERTOWN      SUNNY     62  51  67 NW6       29.97R
BROOKINGS      SUNNY     59  54  82 NW3       29.98S
$$

SDZ017-020-022-023-036>040-048>070-271400-
SOUTHEAST SOUTH DAKOTA

CITY           SKY/WX    TMP DP  RH WIND       PRES   REMARKS
SIOUX FALLS    SUNNY     61  53  75 CALM      29.99R
HURON          SUNNY     59  53  80 CALM      29.98R
CHAMBERLAIN    MOSUNNY   57  51  80 SW5       30.01R
MITCHELL       SUNNY     60  52  74 W5        29.99R
YANKTON        SUNNY     57  54  88 W3        30.00R
$$

ABBREVIATIONS USED IN REMARKS
   TC - TEMPERATURE IN CELSIUS
  WCI - WIND CHILL INDEX
   HX - HEAT INDEX
  VSB - VISIBILITY




USA.gov is the U.S. government's official web portal to all federal, state and local government web resources and services.